Showing default

KINEIS-1A, 60084

Orbit data source: Space-Track

KINEIS-1A, 60084 is a French payload satellite in SSO that was launched on Thu, 20 Jun 2024 UTC via an ELECTRON launch vehicle from the Rocket Lab Launch Complex (RLLC). Payload-class satellites include a variety of spacecraft equipped with specific instruments for various scientific and technological missions. These include communications satellites like Starlink; space stations such as the ISS; scientific satellites like the Hubble; Earth observation satellites from companies like Planet Labs, Umbra, and HawkEye 360; GPS; miniature CubeSats for education and research; and military/defense satellites.

Loading next visibility...
Identifier
60084, 2024-114F
Orbit
SSO
Last TLE update
2 hours ago
Origin
Manufacturer
KINEIS
Mission
Operational Commercial Communications
Bus & Motor
CUBESAT 16U, Unknown motor
Mass
28 kg wet, 28 kg dry
Launch date (UTC)
2024-06-20 (11 months ago)
Launch vehicle
ELECTRON
Launch site
Rocket Lab Launch Complex (RLLC)
Object type
Payload
Rocket body
Debris
Shape & HBR
Box + 2 Pan + 1 Ant, 1.6 m
Radar Cross Section
0.229 m², Medium (>0.1 m² and < 1m²)

Expand to show TLE details & history

TLE from 2 hours ago
0 KINEIS-1A
1 60084U 24114F   25129.20570810  .00001393  00000-0  19276-3 0  9996
2 60084  98.0118 149.8770 0003595  23.2703 336.8670 14.79633634 47631
Epoch: 2025-05-09T04:56Z
Definitive object data (Epoch: 2025-05-09T04:56:13.179Z)
Latitude
-0.0001°
Longitude
-151.44309°
Altitude
631.181 km
Speed
7.544 km/s
True Right ascension
09h 59m 30s
True Declination
0° 00' 00"
Sunlit
Object was in daylight at TLE epoch
Visualization TLE readout
Latitude
69.84873°
Longitude
51.06996°
Altitude
642.356 km
Speed
7.543 km/s
Apparent Right ascension
02h 01m 05s
Apparent Declination
20° 46' 54"
Sunlit
Object is in daylight
Visualization observer readout
Local Sidereal Time
15:11:52
Azimuth
18.617° NNE
Elevation
-27.096°
Doppler factor
1
Orbital elements
Apogee altitude
630.046 km
Perigee altitude
625.009 km
Semi-major axis
7,005.664 km
Eccentricity
0.0003595
Inclination
98.0118°
RAAN
149.877°
Arg. of periapsis
23.2703°
True anomaly
336.85081°
Mean anomaly
336.867°
Eccentric anomaly
336.85891°
Mean motion
3.70143 °/min
BSTAR
0.00019276
Orbital period
97.26 mins
Loading maneuver chart data...
Loading SW <> Apogee altitude chart data...
Loading historical data...
Loading historical data...
Loading historical data...
Loading historical data...
Loading historical data...
Loading historical data...
Loading historical data...

KINEIS-1A Visibility forecast

Observer location: undefined°, undefined°

Span
Click to sort rows by Start time (UTC) header in descending order
Start Az.
Max El. time (UTC)
Max El. Az.
Max El.
End time (UTC)
End Az.
7 mins2025-05-09 13:37:56.316Z36.679° NE2025-05-09 13:40:56.316Z89.981° E29.19°2025-05-09 13:44:56.316Z162.025° S
4 mins2025-05-09 15:15:56.316Z317.433° NNW2025-05-09 15:16:56.316Z299.347° NW19.331°2025-05-09 15:19:56.316Z250.438° W
6 mins2025-05-10 00:33:56.316Z115.204° SE2025-05-10 00:35:56.316Z79.958° E23.909°2025-05-10 00:39:56.316Z12.527° NNE
5 mins2025-05-10 02:10:56.316Z229.685° WSW2025-05-10 02:12:56.316Z271.426° WNW23.085°2025-05-10 02:15:56.316Z318.335° NNW
|